FW1829 Weather Reports


time (UTC)temp
C
wind
direction
speed
KPH
gust
KPH
rain 1hr
cm
rain 24hr
cm
rain mn
cm
humidity
%
barometer
mb
20260906200051 35 160 6.4 30.6 0.00 0.00 0.00 36 1012.4
20260906194547 35 174 11.3 22.5 0.00 0.00 0.00 37 1012.6
20260906193044 35 126 4.8 14.5 0.00 0.00 0.00 38 1012.9
20260906191545 33 146 4.8 19.3 0.00 0.00 0.00 42 1013.4
20260906190039 33 103 4.8 16.1 0.00 0.00 0.00 41 1013.6
20260906184537 32 101 4.8 12.9 0.00 0.00 0.00 46 1014.0
20260906183131 32 103 1.6 9.7 0.00 0.00 0.00 48 1014.0
20260906181533 31 102 1.6 11.3 0.00 0.00 0.00 48 1014.3
20260906180031 31 96 4.8 19.3 0.00 0.00 0.00 47 1014.7
20260906174526 31 101 6.4 17.7 0.00 0.00 0.00 51 1015.0
20260906173023 29 96 6.4 16.1 0.00 0.00 0.00 56 1015.5
20260906171522 28 98 6.4 16.1 0.00 0.00 0.00 57 1015.9
20260906170022 28 96 4.8 17.7 0.00 0.00 0.00 58 1015.9
20260906164521 28 99 1.6 14.5 0.00 0.00 0.00 58 1016.1
20260906163020 28 89 4.8 17.7 0.00 0.00 0.00 58 1016.2
20260906161519 28 96 4.8 16.1 0.00 0.00 0.00 58 1016.2
20260906160019 28 94 4.8 17.7 0.00 0.00 0.00 59 1016.0
20260906154517 28 95 8.0 19.3 0.00 0.00 0.00 58 1015.9
20260906153018 29 86 3.2 19.3 0.00 0.00 0.00 60 1015.8
20260906151511 28 104 6.4 17.7 0.00 0.00 0.00 60 1016.0
20260906150008 28 101 3.2 12.9 0.00 0.00 0.00 62 1016.0
20260906144510 27 91 3.2 12.9 0.00 0.00 0.00 62 1015.9
20260906143005 26 90 1.6 6.4 0.00 0.00 0.00 64 1015.8
20260906141500 25 90 0.0 14.5 0.00 0.00 0.00 66 1015.7
20260906140106 25 148 1.6 12.9 0.00 0.00 0.00 68 1015.6
20260906134556 25 151 0.0 3.2 0.00 0.00 0.00 70 1014.8
20260906133117 24 151 0.0 3.2 0.00 0.00 0.00 71 1014.4
20260906131610 23 181 0.0 3.2 0.00 0.00 0.00 73 1014.2
20260906130056 22 181 0.0 1.6 0.00 0.00 0.00 74 1014.1
20260906124548 22 180 0.0 1.6 0.00 0.00 0.00 73 1013.8
20260906123050 22 181 0.0 1.6 0.00 0.00 0.00 73 1013.5
20260906121549 22 180 0.0 3.2 0.00 0.00 0.00 73 1013.3
20260906120055 22 181 0.0 0.0 0.00 0.00 0.00 72 1013.3
20260906114542 22 181 0.0 1.6 0.00 0.00 0.00 72 1013.1
20260906113041 22 181 0.0 0.0 0.00 0.00 0.00 71 1012.9
20260906111540 22 181 0.0 1.6 0.00 0.00 0.00 71 1012.7
20260906110038 22 181 0.0 1.6 0.00 0.00 0.00 70 1012.6
20260906104538 23 181 0.0 6.4 0.00 0.00 0.00 69 1012.4
20260906103035 23 181 1.6 6.4 0.00 0.00 0.00 69 1012.5
20260906101534 23 181 0.0 0.0 0.00 0.00 0.00 68 1012.7
20260906100035 23 181 0.0 1.6 0.00 0.00 0.00 67 1012.7
20260906094530 23 181 0.0 1.6 0.00 0.00 0.00 65 1012.7
20260906093036 24 181 0.0 0.0 0.00 0.00 0.00 63 1012.7
20260906091523 25 181 0.0 1.6 0.00 0.00 0.00 61 1012.7
20260906090020 25 181 1.6 6.4 0.00 0.00 0.00 59 1012.9
20260906084516 26 181 0.0 4.8 0.00 0.00 0.00 56 1012.9
20260906083017 26 181 0.0 4.8 0.00 0.00 0.00 55 1012.7
20260906081520 26 181 3.2 11.3 0.00 0.00 0.00 55 1012.7
20260906080013 27 181 3.2 11.3 0.00 0.00 0.00 55 1012.6
20260906074513 27 180 4.8 11.3 0.00 0.00 0.00 55 1012.5
20260906073011 27 180 6.4 11.3 0.00 0.00 0.00 55 1012.7
20260906071510 27 178 4.8 16.1 0.00 0.00 0.00 55 1012.4
20260906070010 27 175 6.4 12.9 0.00 0.00 0.00 56 1012.3
20260906064511 27 168 8.0 19.3 0.00 0.00 0.00 56 1012.3
20260906063005 26 150 8.0 17.7 0.00 0.00 0.00 59 1012.4
20260906061503 26 132 3.2 11.3 0.00 0.00 0.00 60 1012.4
20260906060003 26 130 0.0 11.3 0.00 0.00 0.00 62 1012.4
20260906054559 26 126 0.0 11.3 0.00 0.00 0.00 62 1012.4
20260906053057 26 124 0.0 4.8 0.00 0.00 0.00 61 1012.4
20260906051558 26 124 1.6 9.7 0.00 0.00 0.00 61 1012.2
20260906050054 26 124 1.6 6.4 0.00 0.00 0.00 62 1012.3
20260906044551 25 124 1.6 12.9 0.00 0.00 0.00 65 1012.2
20260906043051 25 126 1.6 4.8 0.00 0.00 0.00 68 1012.1
20260906041550 25 126 1.6 6.4 0.00 0.00 0.00 68 1012.0
20260906040051 25 126 0.0 6.4 0.00 0.00 0.00 68 1012.1
20260906034548 25 126 0.0 9.7 0.00 0.00 0.00 67 1012.2
20260906033048 25 126 0.0 4.8 0.00 0.00 0.00 66 1012.4
20260906031549 25 125 0.0 6.4 0.00 0.00 0.00 66 1012.1
20260906030051 26 126 0.0 3.2 0.00 0.00 0.00 66 1011.9
20260906024547 26 125 0.0 12.9 0.00 0.00 0.00 65 1011.7
20260906023046 26 124 0.0 9.7 0.00 0.00 0.00 64 1011.3
20260906021548 26 124 0.0 6.4 0.00 0.00 0.00 63 1011.0
20260906020044 26 124 1.6 9.7 0.00 0.00 0.00 62 1010.7
20260906014546 27 123 0.0 9.7 0.00 0.00 0.00 62 1010.5
20260906013043 27 124 1.6 12.9 0.00 0.00 0.00 61 1010.5
20260906011546 27 127 1.6 8.0 0.00 0.00 0.00 59 1010.5
20260906010042 28 115 1.6 14.5 0.00 0.00 0.00 58 1010.2
20260906004543 28 123 3.2 11.3 0.00 0.00 0.00 57 1010.4
20260906003140 29 134 4.8 17.7 0.00 0.00 0.00 54 1010.5
20260906001540 30 101 6.4 27.4 0.00 0.00 0.00 55 1010.7
20260906000041 30 96 9.7 27.4 0.00 0.00 0.00 53 1010.8
20260905234537 31 92 11.3 20.9 0.00 0.00 0.00 50 1010.7
20260905233053 31 101 12.9 19.3 0.00 0.00 0.00 52 1010.6
20260905231549 31 102 12.9 24.1 0.00 0.00 0.00 50 1010.6
20260905230037 31 101 11.3 25.7 0.00 0.00 0.00 50 1010.3
20260905224544 34 86 12.9 25.7 0.00 0.00 0.00 42 1010.1
20260905223034 38 148 4.8 16.1 0.00 0.00 0.00 35 1009.6
20260905221538 37 163 6.4 19.3 0.00 0.00 0.00 30 1009.4
20260905220033 37 158 8.0 17.7 0.00 0.00 0.00 31 1009.2
20260905214529 37 165 11.3 22.5 0.00 0.00 0.00 31 1009.3
20260905213033 37 144 4.8 17.7 0.00 0.00 0.00 32 1009.6
20260905211531 37 175 4.8 20.9 0.00 0.00 0.00 31 1009.7
20260905210030 37 163 8.0 27.4 0.00 0.00 0.00 32 1009.8
20260905204523 36 169 11.3 16.1 0.00 0.00 0.00 34 1010.0
20260905203020 36 169 9.7 11.3 0.00 0.00 0.00 34 1010.2
20260905201526 36 173 4.8 20.9 0.00 0.00 0.00 35 1010.4